Time,TemperatureF,DewpointF,PressureIn,WindDirection,WindDirectionDegrees,WindSpeedMPH,WindSpeedGustMPH,Humidity,HourlyPrecipIn,Conditions,Clouds,dailyrainin,SoftwareType,DateUTC
2013-04-20 00:00:00,57.6,43.8,29.71,SW,236,2.0,2.0,60,0.00,,,0.55,Wunderground v.1.15,2013-04-20 04:00:00,
2013-04-20 00:05:00,57.3,44.4,29.71,SW,220,2.0,2.0,62,0.00,,,0.00,Wunderground v.1.15,2013-04-20 04:05:00,
2013-04-20 00:15:00,56.9,43.6,29.73,WNW,302,3.0,4.0,61,0.00,,,0.00,Wunderground v.1.15,2013-04-20 04:15:00,
2013-04-20 00:20:00,56.8,42.2,29.73,North,354,2.0,2.0,58,0.00,,,0.00,Wunderground v.1.15,2013-04-20 04:20:00,
2013-04-20 00:30:00,56.4,41.3,29.74,East,83,3.0,3.0,57,0.00,,,0.00,Wunderground v.1.15,2013-04-20 04:30:00,
2013-04-20 00:35:00,56.2,42.5,29.75,SE,135,3.0,3.0,60,0.00,,,0.00,Wunderground v.1.15,2013-04-20 04:35:00,
2013-04-20 00:45:00,55.6,40.1,29.76,NNW,330,2.0,3.0,56,0.00,,,0.00,Wunderground v.1.15,2013-04-20 04:45:00,
2013-04-20 00:54:00,55.2,40.7,29.77,NW,324,3.0,3.0,58,0.00,,,0.00,Wunderground v.1.15,2013-04-20 04:54:00,
2013-04-20 01:00:00,55.0,41.8,29.78,NNW,336,2.0,2.0,61,0.00,,,0.00,Wunderground v.1.15,2013-04-20 05:00:00,
2013-04-20 01:05:00,54.8,40.3,29.78,NNW,345,1.0,3.0,58,0.00,,,0.00,Wunderground v.1.15,2013-04-20 05:05:00,
2013-04-20 01:14:00,54.6,40.1,29.78,NNW,329,1.0,1.0,58,0.00,,,0.00,Wunderground v.1.15,2013-04-20 05:14:00,
2013-04-20 01:20:00,54.5,40.5,29.79,North,4,1.0,1.0,59,0.00,,,0.00,Wunderground v.1.15,2013-04-20 05:20:00,
2013-04-20 01:25:00,54.2,40.2,29.80,NNW,329,1.0,1.0,59,0.00,,,0.00,Wunderground v.1.15,2013-04-20 05:25:00,
2013-04-20 01:35:00,54.0,40.0,29.80,NNW,347,1.0,1.0,59,0.00,,,0.00,Wunderground v.1.15,2013-04-20 05:35:00,
2013-04-20 01:44:00,53.6,40.0,29.80,NW,317,2.0,2.0,60,0.00,,,0.00,Wunderground v.1.15,2013-04-20 05:44:00,
2013-04-20 01:50:00,53.5,39.5,29.81,North,359,2.0,2.0,59,0.00,,,0.00,Wunderground v.1.15,2013-04-20 05:50:00,
2013-04-20 01:54:00,53.3,38.9,29.81,NNE,12,2.0,4.0,58,0.00,,,0.00,Wunderground v.1.15,2013-04-20 05:54:00,
2013-04-20 01:59:00,53.1,38.7,29.81,WNW,297,3.0,6.0,58,0.00,,,0.00,Wunderground v.1.15,2013-04-20 05:59:00,
2013-04-20 02:05:00,53.0,39.0,29.82,NW,307,2.0,6.0,59,0.00,,,0.00,Wunderground v.1.15,2013-04-20 06:05:00,
2013-04-20 02:14:00,52.7,38.3,29.81,WNW,303,2.0,7.0,58,0.00,,,0.00,Wunderground v.1.15,2013-04-20 06:14:00,
2013-04-20 02:19:00,52.6,39.1,29.81,WNW,296,2.0,4.0,60,0.00,,,0.00,Wunderground v.1.15,2013-04-20 06:19:00,
2013-04-20 02:25:00,52.4,38.5,29.82,WNW,303,2.0,4.0,59,0.00,,,0.00,Wunderground v.1.15,2013-04-20 06:25:00,
2013-04-20 02:34:00,52.2,38.3,29.82,West,264,2.0,3.0,59,0.00,,,0.00,Wunderground v.1.15,2013-04-20 06:34:00,
2013-04-20 02:40:00,52.1,38.6,29.82,South,182,2.0,3.0,60,0.00,,,0.00,Wunderground v.1.15,2013-04-20 06:40:00,
2013-04-20 02:50:00,51.9,39.3,29.83,NNW,343,1.0,2.0,62,0.00,,,0.00,Wunderground v.1.15,2013-04-20 06:50:00,
2013-04-20 02:55:00,51.8,38.8,29.83,NW,315,2.0,2.0,61,0.00,,,0.00,Wunderground v.1.15,2013-04-20 06:55:00,
2013-04-20 03:05:00,51.6,38.2,29.84,North,349,3.0,5.0,60,0.00,,,0.00,Wunderground v.1.15,2013-04-20 07:05:00,
2013-04-20 03:15:00,51.4,38.4,29.85,North,4,2.0,4.0,61,0.00,,,0.00,Wunderground v.1.15,2013-04-20 07:15:00,
2013-04-20 03:25:00,51.2,39.0,29.85,NW,316,2.0,2.0,63,0.00,,,0.00,Wunderground v.1.15,2013-04-20 07:25:00,
2013-04-20 03:30:00,51.1,37.7,29.85,NW,322,2.0,2.0,60,0.00,,,0.00,Wunderground v.1.15,2013-04-20 07:30:00,
2013-04-20 03:40:00,50.9,36.6,29.86,NNW,330,2.0,2.0,58,0.00,,,0.00,Wunderground v.1.15,2013-04-20 07:40:00,
2013-04-20 03:49:00,50.8,37.0,29.87,NNE,26,1.0,1.0,59,0.00,,,0.00,Wunderground v.1.15,2013-04-20 07:49:00,
2013-04-20 03:55:00,50.8,37.0,29.87,West,280,1.0,2.0,59,0.00,,,0.00,Wunderground v.1.15,2013-04-20 07:55:00,
2013-04-20 04:00:00,50.6,35.5,29.87,NW,305,1.0,1.0,56,0.00,,,0.00,Wunderground v.1.15,2013-04-20 08:00:00,
2013-04-20 04:05:00,50.5,34.9,29.88,NNW,336,2.0,5.0,55,0.00,,,0.00,Wunderground v.1.15,2013-04-20 08:05:00,
2013-04-20 04:15:00,50.5,34.0,29.88,NW,325,3.0,5.0,53,0.00,,,0.00,Wunderground v.1.15,2013-04-20 08:15:00,
2013-04-20 04:24:00,50.2,34.6,29.88,NW,321,2.0,4.0,55,0.00,,,0.00,Wunderground v.1.15,2013-04-20 08:24:00,
2013-04-20 04:30:00,49.9,34.4,29.88,West,281,1.0,1.0,55,0.00,,,0.00,Wunderground v.1.15,2013-04-20 08:30:00,
2013-04-20 04:35:00,49.7,34.6,29.88,NW,306,1.0,1.0,56,0.00,,,0.00,Wunderground v.1.15,2013-04-20 08:35:00,
2013-04-20 04:45:00,49.6,34.5,29.89,WNW,297,1.0,1.0,56,0.00,,,0.00,Wunderground v.1.15,2013-04-20 08:45:00,
2013-04-20 04:55:00,49.4,33.9,29.90,WSW,251,2.0,9.0,55,0.00,,,0.00,Wunderground v.1.15,2013-04-20 08:55:00,
2013-04-20 05:00:00,49.4,33.9,29.90,North,8,1.0,1.0,55,0.00,,,0.00,Wunderground v.1.15,2013-04-20 09:00:00,
2013-04-20 05:05:00,49.2,34.6,29.90,NNW,332,1.0,1.0,57,0.00,,,0.00,Wunderground v.1.15,2013-04-20 09:05:00,
2013-04-20 05:14:00,49.1,33.6,29.91,NW,307,2.0,6.0,55,0.00,,,0.00,Wunderground v.1.15,2013-04-20 09:14:00,
2013-04-20 05:20:00,49.0,34.4,29.91,NNW,335,1.0,1.0,57,0.00,,,0.00,Wunderground v.1.15,2013-04-20 09:20:00,
2013-04-20 05:30:00,48.7,33.2,29.92,West,274,0.0,0.0,55,0.00,,,0.00,Wunderground v.1.15,2013-04-20 09:30:00,
2013-04-20 05:35:00,48.6,34.5,29.92,West,274,0.0,0.0,58,0.00,,,0.00,Wunderground v.1.15,2013-04-20 09:35:00,
2013-04-20 05:45:00,48.2,33.7,29.92,NW,322,0.0,0.0,57,0.00,,,0.00,Wunderground v.1.15,2013-04-20 09:45:00,
2013-04-20 05:54:00,47.8,33.3,29.93,NNW,335,0.0,1.0,57,0.00,,,0.00,Wunderground v.1.15,2013-04-20 09:54:00,
2013-04-20 06:00:00,47.7,33.2,29.93,NNW,335,0.0,0.0,57,0.00,,,0.00,Wunderground v.1.15,2013-04-20 10:00:00,
2013-04-20 06:05:00,47.6,33.5,29.94,NNW,334,0.0,0.0,58,0.00,,,0.00,Wunderground v.1.15,2013-04-20 10:05:00,
2013-04-20 06:14:00,47.3,32.8,29.94,WSW,250,0.0,1.0,57,0.00,,,0.00,Wunderground v.1.15,2013-04-20 10:14:00,
2013-04-20 06:20:00,47.2,32.3,29.95,NW,323,1.0,1.0,56,0.00,,,0.00,Wunderground v.1.15,2013-04-20 10:20:00,
2013-04-20 06:29:00,46.8,31.9,29.95,NW,305,0.0,0.0,56,0.00,,,0.00,Wunderground v.1.15,2013-04-20 10:29:00,
2013-04-20 06:35:00,46.6,30.8,29.95,NW,305,1.0,1.0,54,0.00,,,0.00,Wunderground v.1.15,2013-04-20 10:35:00,
2013-04-20 06:40:00,46.3,31.4,29.96,NW,304,0.0,0.0,56,0.00,,,0.00,Wunderground v.1.15,2013-04-20 10:40:00,
2013-04-20 06:50:00,45.8,30.1,29.97,NW,305,0.0,0.0,54,0.00,,,0.00,Wunderground v.1.15,2013-04-20 10:50:00,
2013-04-20 07:00:00,45.5,31.1,29.97,WNW,296,1.0,1.0,57,0.00,,,0.00,Wunderground v.1.15,2013-04-20 11:00:00,
2013-04-20 07:05:00,45.5,29.3,29.97,North,354,1.0,3.0,53,0.00,,,0.00,Wunderground v.1.15,2013-04-20 11:05:00,
2013-04-20 07:14:00,45.6,29.0,29.98,North,354,1.0,1.0,52,0.00,,,0.00,Wunderground v.1.15,2013-04-20 11:14:00,
2013-04-20 07:19:00,45.6,28.5,29.99,NW,322,1.0,1.0,51,0.00,,,0.00,Wunderground v.1.15,2013-04-20 11:19:00,
2013-04-20 07:25:00,45.6,29.0,29.99,NNW,329,1.0,1.0,52,0.00,,,0.00,Wunderground v.1.15,2013-04-20 11:25:00,
2013-04-20 07:35:00,45.3,28.7,29.99,NNW,328,0.0,0.0,52,0.00,,,0.00,Wunderground v.1.15,2013-04-20 11:35:00,
2013-04-20 07:40:00,45.1,28.5,30.00,NNW,329,0.0,0.0,52,0.00,,,0.00,Wunderground v.1.15,2013-04-20 11:40:00,
2013-04-20 07:50:00,45.1,29.0,30.00,NNW,341,0.0,3.0,53,0.00,,,0.00,Wunderground v.1.15,2013-04-20 11:50:00,
2013-04-20 07:59:00,45.6,29.4,30.00,NNW,335,1.0,1.0,53,0.00,,,0.00,Wunderground v.1.15,2013-04-20 11:59:00,
2013-04-20 08:05:00,45.8,30.5,30.01,NNW,335,1.0,1.0,55,0.00,,,0.00,Wunderground v.1.15,2013-04-20 12:05:00,
2013-04-20 08:15:00,46.2,29.1,30.01,WSW,239,1.0,1.0,51,0.00,,,0.00,Wunderground v.1.15,2013-04-20 12:15:00,
2013-04-20 08:25:00,46.7,30.5,30.02,SW,230,0.0,1.0,53,0.00,,,0.00,Wunderground v.1.15,2013-04-20 12:25:00,
2013-04-20 08:30:00,46.8,30.1,30.02,SSW,204,1.0,4.0,52,0.00,,,0.00,Wunderground v.1.15,2013-04-20 12:30:00,
2013-04-20 08:40:00,47.2,30.9,30.02,SE,124,1.0,4.0,53,0.00,,,0.00,Wunderground v.1.15,2013-04-20 12:40:00,
2013-04-20 08:45:00,47.5,30.3,30.03,North,10,1.0,4.0,51,0.00,,,0.00,Wunderground v.1.15,2013-04-20 12:45:00,
2013-04-20 08:55:00,47.9,29.6,30.03,WNW,287,1.0,3.0,49,0.00,,,0.00,Wunderground v.1.15,2013-04-20 12:55:00,
2013-04-20 09:05:00,48.3,30.5,30.03,NW,307,2.0,2.0,50,0.00,,,0.00,Wunderground v.1.15,2013-04-20 13:05:00,
2013-04-20 09:15:00,48.6,30.8,30.04,NNW,343,1.0,5.0,50,0.00,,,0.00,Wunderground v.1.15,2013-04-20 13:15:00,
2013-04-20 09:20:00,48.7,31.4,30.04,West,276,2.0,2.0,51,0.00,,,0.00,Wunderground v.1.15,2013-04-20 13:20:00,
2013-04-20 09:30:00,48.9,31.1,30.04,NNE,19,2.0,2.0,50,0.00,,,0.00,Wunderground v.1.15,2013-04-20 13:30:00,
2013-04-20 09:39:00,49.1,31.2,30.05,West,264,2.0,2.0,50,0.00,,,0.00,Wunderground v.1.15,2013-04-20 13:39:00,
2013-04-20 09:45:00,49.2,30.8,30.05,WSW,252,2.0,2.0,49,0.00,,,0.00,Wunderground v.1.15,2013-04-20 13:45:00,
2013-04-20 09:54:00,50.2,32.8,30.05,South,179,1.0,2.0,51,0.00,,,0.00,Wunderground v.1.15,2013-04-20 13:54:00,
2013-04-20 10:00:00,50.4,31.4,30.05,SSW,211,1.0,1.0,48,0.00,,,0.00,Wunderground v.1.15,2013-04-20 14:00:00,
2013-04-20 10:05:00,50.4,32.9,30.06,NNW,344,1.0,1.0,51,0.00,,,0.00,Wunderground v.1.15,2013-04-20 14:05:00,
2013-04-20 10:14:00,50.8,33.8,30.06,SSW,201,1.0,3.0,52,0.00,,,0.00,Wunderground v.1.15,2013-04-20 14:14:00,
2013-04-20 10:20:00,51.0,32.5,30.06,South,191,1.0,1.0,49,0.00,,,0.00,Wunderground v.1.15,2013-04-20 14:20:00,
2013-04-20 10:29:00,51.8,32.2,30.06,SSW,193,1.0,1.0,47,0.00,,,0.00,Wunderground v.1.15,2013-04-20 14:29:00,
2013-04-20 10:35:00,51.7,31.6,30.06,NE,50,2.0,2.0,46,0.00,,,0.00,Wunderground v.1.15,2013-04-20 14:35:00,
2013-04-20 10:40:00,51.7,32.6,30.07,North,9,2.0,5.0,48,0.00,,,0.00,Wunderground v.1.15,2013-04-20 14:40:00,
2013-04-20 10:50:00,52.4,32.7,30.06,NNE,18,2.0,2.0,47,0.00,,,0.00,Wunderground v.1.15,2013-04-20 14:50:00,
2013-04-20 11:00:00,53.0,33.8,30.07,NW,322,2.0,2.0,48,0.00,,,0.00,Wunderground v.1.15,2013-04-20 15:00:00,
2013-04-20 11:05:00,53.0,32.2,30.07,NNW,347,2.0,5.0,45,0.00,,,0.00,Wunderground v.1.15,2013-04-20 15:05:00,
2013-04-20 11:14:00,53.3,33.6,30.07,North,354,3.0,3.0,47,0.00,,,0.00,Wunderground v.1.15,2013-04-20 15:14:00,
2013-04-20 11:19:00,53.3,31.9,30.07,West,269,3.0,3.0,44,0.00,,,0.00,Wunderground v.1.15,2013-04-20 15:19:00,
2013-04-20 11:25:00,53.5,31.5,30.07,South,180,2.0,3.0,43,0.00,,,0.00,Wunderground v.1.15,2013-04-20 15:25:00,
2013-04-20 11:35:00,53.9,32.5,30.07,WNW,303,2.0,2.0,44,0.00,,,0.00,Wunderground v.1.15,2013-04-20 15:35:00,
2013-04-20 11:44:00,54.6,34.2,30.07,South,181,2.0,3.0,46,0.00,,,0.00,Wunderground v.1.15,2013-04-20 15:44:00,
2013-04-20 11:50:00,54.9,31.6,30.07,NW,322,2.0,2.0,41,0.00,,,0.00,Wunderground v.1.15,2013-04-20 15:50:00,
2013-04-20 11:59:00,55.5,33.9,30.07,WSW,251,1.0,2.0,44,0.00,,,0.00,Wunderground v.1.15,2013-04-20 15:59:00,
2013-04-20 12:05:00,55.6,34.0,30.07,WSW,240,1.0,2.0,44,0.00,,,0.00,Wunderground v.1.15,2013-04-20 16:05:00,
2013-04-20 12:15:00,55.9,33.7,30.06,East,94,1.0,1.0,43,0.00,,,0.00,Wunderground v.1.15,2013-04-20 16:15:00,
2013-04-20 12:25:00,56.4,34.7,30.07,SSW,196,2.0,3.0,44,0.00,,,0.00,Wunderground v.1.15,2013-04-20 16:25:00,
2013-04-20 12:34:00,57.1,33.6,30.07,SSW,212,2.0,2.0,41,0.00,,,0.00,Wunderground v.1.15,2013-04-20 16:34:00,
2013-04-20 12:40:00,57.4,33.9,30.06,North,359,2.0,2.0,41,0.00,,,0.00,Wunderground v.1.15,2013-04-20 16:40:00,
2013-04-20 12:49:00,57.8,32.3,30.06,South,187,2.0,2.0,38,0.00,,,0.00,Wunderground v.1.15,2013-04-20 16:49:00,
2013-04-20 12:55:00,58.1,35.7,30.06,SSW,193,2.0,2.0,43,0.00,,,0.00,Wunderground v.1.15,2013-04-20 16:55:00,
2013-04-20 13:05:00,59.0,32.1,30.06,NW,314,2.0,2.0,36,0.00,,,0.00,Wunderground v.1.15,2013-04-20 17:05:00,
2013-04-20 13:15:00,59.5,34.5,30.05,West,270,2.0,3.0,39,0.00,,,0.00,Wunderground v.1.15,2013-04-20 17:15:00,
2013-04-20 13:24:00,59.4,35.1,30.05,NNW,338,3.0,3.0,40,0.00,,,0.00,Wunderground v.1.15,2013-04-20 17:24:00,
2013-04-20 13:30:00,59.3,34.3,30.05,South,171,3.0,3.0,39,0.00,,,0.00,Wunderground v.1.15,2013-04-20 17:30:00,
2013-04-20 13:40:00,60.7,37.5,30.05,SW,214,1.0,1.0,42,0.00,,,0.00,Wunderground v.1.15,2013-04-20 17:40:00,
2013-04-20 13:49:00,60.6,35.5,30.06,WNW,290,3.0,3.0,39,0.00,,,0.00,Wunderground v.1.15,2013-04-20 17:49:00,
2013-04-20 13:55:00,60.6,34.2,30.05,South,182,2.0,3.0,37,0.00,,,0.00,Wunderground v.1.15,2013-04-20 17:55:00,
2013-04-20 14:05:00,61.4,35.5,30.05,North,354,1.0,4.0,38,0.00,,,0.00,Wunderground v.1.15,2013-04-20 18:05:00,
2013-04-20 14:15:00,61.1,33.9,30.05,NNW,335,3.0,3.0,36,0.00,,,0.00,Wunderground v.1.15,2013-04-20 18:15:00,
2013-04-20 14:24:00,61.3,34.8,30.05,West,272,2.0,3.0,37,0.00,,,0.00,Wunderground v.1.15,2013-04-20 18:24:00,
2013-04-20 14:30:00,62.1,36.8,30.05,NNW,343,1.0,3.0,39,0.00,,,0.00,Wunderground v.1.15,2013-04-20 18:30:00,
2013-04-20 14:40:00,62.0,33.3,30.05,NNE,14,3.0,3.0,34,0.00,,,0.00,Wunderground v.1.15,2013-04-20 18:40:00,
2013-04-20 14:45:00,61.7,34.5,30.05,WNW,288,3.0,3.0,36,0.00,,,0.00,Wunderground v.1.15,2013-04-20 18:45:00,
2013-04-20 14:55:00,62.4,36.4,30.05,NW,315,2.0,3.0,38,0.00,,,0.00,Wunderground v.1.15,2013-04-20 18:55:00,
2013-04-20 15:00:00,62.4,34.4,30.05,SSW,212,2.0,2.0,35,0.00,,,0.00,Wunderground v.1.15,2013-04-20 19:00:00,
2013-04-20 15:05:00,62.4,37.1,30.05,ESE,123,2.0,2.0,39,0.00,,,0.00,Wunderground v.1.15,2013-04-20 19:05:00,
2013-04-20 15:14:00,63.3,36.6,30.05,SSE,161,1.0,1.0,37,0.00,,,0.00,Wunderground v.1.15,2013-04-20 19:14:00,
2013-04-20 15:20:00,63.5,35.3,30.05,West,270,1.0,1.0,35,0.00,,,0.00,Wunderground v.1.15,2013-04-20 19:20:00,
2013-04-20 15:30:00,63.0,36.3,30.05,NW,321,2.0,2.0,37,0.00,,,0.00,Wunderground v.1.15,2013-04-20 19:30:00,
2013-04-20 15:35:00,62.8,31.7,30.05,NNW,327,2.0,2.0,31,0.00,,,0.00,Wunderground v.1.15,2013-04-20 19:35:00,
2013-04-20 15:45:00,64.0,37.9,30.05,South,184,1.0,1.0,38,0.00,,,0.00,Wunderground v.1.15,2013-04-20 19:45:00,
2013-04-20 15:54:00,63.9,35.7,30.05,SSW,211,1.0,2.0,35,0.00,,,0.00,Wunderground v.1.15,2013-04-20 19:54:00,
2013-04-20 16:00:00,64.0,36.5,30.05,ENE,63,1.0,3.0,36,0.00,,,0.00,Wunderground v.1.15,2013-04-20 20:00:00,
2013-04-20 16:05:00,63.7,38.3,30.05,NNW,341,1.0,3.0,39,0.00,,,0.00,Wunderground v.1.15,2013-04-20 20:05:00,
2013-04-20 16:14:00,62.6,36.6,30.05,NNW,343,2.0,2.0,38,0.00,,,0.00,Wunderground v.1.15,2013-04-20 20:14:00,
2013-04-20 16:20:00,63.0,35.6,30.06,NW,304,1.0,2.0,36,0.00,,,0.00,Wunderground v.1.15,2013-04-20 20:20:00,
2013-04-20 16:29:00,63.1,31.1,30.05,NNW,335,3.0,3.0,30,0.00,,,0.00,Wunderground v.1.15,2013-04-20 20:29:00,
2013-04-20 16:35:00,63.3,33.7,30.05,North,354,2.0,3.0,33,0.00,,,0.00,Wunderground v.1.15,2013-04-20 20:35:00,
2013-04-20 16:44:00,63.7,32.5,30.06,SW,219,2.0,5.0,31,0.00,,,0.00,Wunderground v.1.15,2013-04-20 20:44:00,
2013-04-20 16:50:00,63.9,33.4,30.06,NNW,328,2.0,2.0,32,0.00,,,0.00,Wunderground v.1.15,2013-04-20 20:50:00,
2013-04-20 16:59:00,63.1,31.9,30.06,WNW,299,2.0,4.0,31,0.00,,,0.00,Wunderground v.1.15,2013-04-20 20:59:00,
2013-04-20 17:05:00,62.9,34.8,30.06,NE,39,2.0,4.0,35,0.00,,,0.00,Wunderground v.1.15,2013-04-20 21:05:00,
2013-04-20 17:14:00,62.8,34.0,30.07,East,95,2.0,2.0,34,0.00,,,0.00,Wunderground v.1.15,2013-04-20 21:14:00,
2013-04-20 17:19:00,62.6,32.3,30.07,NW,314,2.0,2.0,32,0.00,,,0.00,Wunderground v.1.15,2013-04-20 21:19:00,
2013-04-20 17:25:00,62.2,32.7,30.07,NNW,335,2.0,3.0,33,0.00,,,0.00,Wunderground v.1.15,2013-04-20 21:25:00,
2013-04-20 17:34:00,61.8,31.6,30.07,NW,315,1.0,1.0,32,0.00,,,0.00,Wunderground v.1.15,2013-04-20 21:34:00,
2013-04-20 17:40:00,61.9,30.9,30.08,NNW,333,1.0,1.0,31,0.00,,,0.00,Wunderground v.1.15,2013-04-20 21:40:00,
2013-04-20 17:50:00,61.5,31.3,30.08,NNW,328,1.0,1.0,32,0.00,,,0.00,Wunderground v.1.15,2013-04-20 21:50:00,
2013-04-20 17:59:00,61.2,34.7,30.08,SSW,212,1.0,1.0,37,0.00,,,0.00,Wunderground v.1.15,2013-04-20 21:59:00,
2013-04-20 18:05:00,61.2,31.8,30.09,NNE,22,1.0,1.0,33,0.00,,,0.00,Wunderground v.1.15,2013-04-20 22:05:00,
2013-04-20 18:15:00,61.2,31.8,30.09,NW,320,2.0,3.0,33,0.00,,,0.00,Wunderground v.1.15,2013-04-20 22:15:00,
2013-04-20 18:25:00,61.0,31.7,30.09,NNW,342,2.0,5.0,33,0.00,,,0.00,Wunderground v.1.15,2013-04-20 22:25:00,
2013-04-20 18:34:00,60.7,31.4,30.10,NW,320,1.0,3.0,33,0.00,,,0.00,Wunderground v.1.15,2013-04-20 22:34:00,
2013-04-20 18:40:00,60.7,32.9,30.10,NW,319,1.0,1.0,35,0.00,,,0.00,Wunderground v.1.15,2013-04-20 22:40:00,
2013-04-20 18:49:00,60.4,31.9,30.10,NNW,328,1.0,1.0,34,0.00,,,0.00,Wunderground v.1.15,2013-04-20 22:49:00,
2013-04-20 18:55:00,60.2,32.4,30.10,WNW,301,1.0,2.0,35,0.00,,,0.00,Wunderground v.1.15,2013-04-20 22:55:00,
2013-04-20 19:05:00,59.9,30.7,30.11,NNW,348,1.0,1.0,33,0.00,,,0.00,Wunderground v.1.15,2013-04-20 23:05:00,
2013-04-20 19:15:00,59.5,30.3,30.11,NNW,332,1.0,1.0,33,0.00,,,0.00,Wunderground v.1.15,2013-04-20 23:15:00,
2013-04-20 19:24:00,59.0,33.4,30.12,NNW,332,0.0,0.0,38,0.00,,,0.00,Wunderground v.1.15,2013-04-20 23:24:00,
2013-04-20 19:30:00,58.8,33.2,30.12,NNW,332,0.0,0.0,38,0.00,,,0.00,Wunderground v.1.15,2013-04-20 23:30:00,
2013-04-20 19:39:00,58.1,31.9,30.13,NNW,332,0.0,0.0,37,0.00,,,0.00,Wunderground v.1.15,2013-04-20 23:39:00,
2013-04-20 19:45:00,57.8,31.0,30.13,NNW,332,0.0,0.0,36,0.00,,,0.00,Wunderground v.1.15,2013-04-20 23:45:00,
2013-04-20 19:54:00,57.3,31.2,30.14,NNW,332,0.0,0.0,37,0.00,,,0.00,Wunderground v.1.15,2013-04-20 23:54:00,
2013-04-20 20:00:00,57.1,31.0,30.14,NNW,332,0.0,1.0,37,0.00,,,0.00,Wunderground v.1.15,2013-04-21 00:00:00,
2013-04-20 20:05:00,56.7,30.7,30.15,NNW,333,0.0,1.0,37,0.00,,,0.00,Wunderground v.1.15,2013-04-21 00:05:00,
2013-04-20 20:14:00,56.2,30.9,30.16,NNW,332,0.0,0.0,38,0.00,,,0.00,Wunderground v.1.15,2013-04-21 00:14:00,
2013-04-20 20:20:00,55.9,30.6,30.17,NNW,332,0.0,0.0,38,0.00,,,0.00,Wunderground v.1.15,2013-04-21 00:20:00,
2013-04-20 20:29:00,55.4,30.2,30.17,NNW,332,0.0,0.0,38,0.00,,,0.00,Wunderground v.1.15,2013-04-21 00:29:00,
2013-04-20 20:35:00,55.1,31.2,30.18,NNW,332,0.0,0.0,40,0.00,,,0.00,Wunderground v.1.15,2013-04-21 00:35:00,
2013-04-20 20:45:00,54.6,30.7,30.19,NNW,332,0.0,0.0,40,0.00,,,0.00,Wunderground v.1.15,2013-04-21 00:45:00,
2013-04-20 20:50:00,54.3,32.3,30.19,NNW,332,0.0,0.0,43,0.00,,,0.00,Wunderground v.1.15,2013-04-21 00:50:00,
2013-04-20 21:00:00,53.7,32.3,30.20,NNW,332,0.0,0.0,44,0.00,,,0.00,Wunderground v.1.15,2013-04-21 01:00:00,
2013-04-20 21:05:00,53.3,31.9,30.20,NNW,332,0.0,0.0,44,0.00,,,0.00,Wunderground v.1.15,2013-04-21 01:05:00,
2013-04-20 21:14:00,52.7,31.9,30.21,NNW,332,0.0,0.0,45,0.00,,,0.00,Wunderground v.1.15,2013-04-21 01:14:00,
2013-04-20 21:20:00,52.4,31.7,30.21,NNW,332,0.0,0.0,45,0.00,,,0.00,Wunderground v.1.15,2013-04-21 01:20:00,
2013-04-20 21:29:00,51.7,32.6,30.22,NNW,332,0.0,0.0,48,0.00,,,0.00,Wunderground v.1.15,2013-04-21 01:29:00,
2013-04-20 21:34:00,51.1,32.1,30.23,NNW,332,0.0,0.0,48,0.00,,,0.00,Wunderground v.1.15,2013-04-21 01:34:00,
2013-04-20 21:40:00,50.6,31.1,30.23,NNW,332,0.0,0.0,47,0.00,,,0.00,Wunderground v.1.15,2013-04-21 01:40:00,
2013-04-20 21:50:00,50.2,31.8,30.24,NNW,332,0.0,0.0,49,0.00,,,0.00,Wunderground v.1.15,2013-04-21 01:50:00,
2013-04-20 22:00:00,49.4,31.0,30.24,NNW,332,0.0,0.0,49,0.00,,,0.00,Wunderground v.1.15,2013-04-21 02:00:00,
2013-04-20 22:05:00,49.2,31.3,30.25,NNW,332,0.0,0.0,50,0.00,,,0.00,Wunderground v.1.15,2013-04-21 02:05:00,
2013-04-20 22:14:00,49.1,30.7,30.25,NNW,332,0.0,0.0,49,0.00,,,0.00,Wunderground v.1.15,2013-04-21 02:14:00,
2013-04-20 22:19:00,48.9,34.3,30.25,NNW,332,0.0,0.0,57,0.00,,,0.00,Wunderground v.1.15,2013-04-21 02:19:00,
2013-04-20 22:25:00,48.7,33.7,30.25,NNW,332,0.0,0.0,56,0.00,,,0.00,Wunderground v.1.15,2013-04-21 02:25:00,
2013-04-20 22:34:00,48.4,31.1,30.26,NNW,332,0.0,0.0,51,0.00,,,0.00,Wunderground v.1.15,2013-04-21 02:34:00,
2013-04-20 22:40:00,48.4,30.1,30.26,NNW,332,0.0,0.0,49,0.00,,,0.00,Wunderground v.1.15,2013-04-21 02:40:00,
2013-04-20 22:49:00,48.7,30.9,30.26,NNW,332,0.0,0.0,50,0.00,,,0.00,Wunderground v.1.15,2013-04-21 02:49:00,
2013-04-20 22:55:00,48.6,29.8,30.26,NNW,332,0.0,0.0,48,0.00,,,0.00,Wunderground v.1.15,2013-04-21 02:55:00,
2013-04-20 23:05:00,47.8,31.0,30.26,NNW,332,0.0,0.0,52,0.00,,,0.00,Wunderground v.1.15,2013-04-21 03:05:00,
2013-04-20 23:14:00,47.4,31.6,30.26,NNW,333,0.0,0.0,54,0.00,,,0.00,Wunderground v.1.15,2013-04-21 03:14:00,
2013-04-20 23:19:00,47.1,31.7,30.27,NNW,332,0.0,0.0,55,0.00,,,0.00,Wunderground v.1.15,2013-04-21 03:19:00,
2013-04-20 23:25:00,47.0,33.8,30.27,NNW,332,0.0,0.0,60,0.00,,,0.00,Wunderground v.1.15,2013-04-21 03:25:00,
2013-04-20 23:34:00,46.8,31.9,30.27,NNW,332,0.0,0.0,56,0.00,,,0.00,Wunderground v.1.15,2013-04-21 03:34:00,
2013-04-20 23:40:00,46.6,31.7,30.27,NNW,332,0.0,0.0,56,0.00,,,0.00,Wunderground v.1.15,2013-04-21 03:40:00,
2013-04-20 23:49:00,46.4,31.5,30.28,NNW,332,0.0,0.0,56,0.00,,,0.00,Wunderground v.1.15,2013-04-21 03:49:00,
2013-04-20 23:55:00,46.3,35.9,30.28,NNW,332,0.0,0.0,67,0.00,,,0.00,Wunderground v.1.15,2013-04-21 03:55:00,